Weather History for LROP - May, 2013

Change the Weather History Date:

Tuesday, May 21, 2013

  Actual Average Record
Temperature  
Mean Temperature 72 °F -  
Max Temperature 84 °F 77 °F 87 °F (1997)
Min Temperature 59 °F 54 °F 50 °F (2001)
Cooling Degree Days 6    
Growing Degree Days 22 (Base 50)    
Moisture  
Dew Point 58 °F    
Average Humidity 68    
Maximum Humidity 100    
Minimum Humidity 35    
Precipitation  
Precipitation 0.00 in - - ()
Sea Level Pressure  
Sea Level Pressure 29.93 in    
Wind  
Wind Speed 8 mph ()    
Max Wind Speed 20 mph    
Max Gust Speed -    
Visibility 6.0 miles    
Events Rain , Thunderstorm    
Averages and records for this station are not official NWS values.
T = Trace of Precipitation, MM = Missing Value Source: Averaged Metar Reports

Daily Weather History Graph

Daily Weather History Graph

Search for Another Location

Airport or City:

Trip Planner

Search our weather history database for the weather conditions in past years. The results will help you decide how hot, cold, wet, or windy it might be!

Date:

Astronomy

May. 21, 2013 Rise Set
Actual Time 5:41 AM EEST 8:43 PM EEST
Civil Twilight 5:07 AM EEST 9:17 PM EEST
Nautical Twilight 4:22 AM EEST 10:02 PM EEST
Astronomical Twilight 3:30 AM EEST 10:55 PM EEST
Moon 4:26 PM EEST (5/21) 3:09 AM EEST (5/21)
Length of Visible Light 16h 10m
Length of Day
15h 01m
Waxing Gibbous, 81% of the Moon is Illuminated
May 21
Waxing Gibbous
May 25
Full
May 31
Last Quarter
Jun 8
New
Jun 16
First Quarter

Hourly Weather History & Observations

Time (EEST) Temp. Heat Index Dew Point Humidity Pressure Visibility Wind Dir Wind Speed Gust Speed Precip Events Conditions
12:00 AM 66.2 °F - 59.0 °F 78% 29.95 in 6.2 mi North 13.8 mph - N/A Rain , Thunderstorm Light Thunderstorms and Rain
12:30 AM 64.4 °F - 59.0 °F 83% 29.95 in 6.2 mi ENE 19.6 mph - N/A Rain , Thunderstorm Light Thunderstorms and Rain
1:00 AM 62.6 °F - 60.8 °F 94% 29.92 in 3.7 mi ENE 16.1 mph - N/A Rain , Thunderstorm Thunderstorms and Rain
1:30 AM 62.6 °F - 59.0 °F 88% 29.95 in 6.2 mi ENE 8.1 mph - N/A Rain , Thunderstorm Light Thunderstorms and Rain
2:00 AM 62.6 °F - 60.8 °F 94% 29.95 in 6.2 mi NNE 6.9 mph - N/A Thunderstorm Thunderstorm
2:30 AM 62.6 °F - 60.8 °F 94% 29.95 in 6.2 mi ENE 5.8 mph - N/A   Partly Cloudy
3:00 AM 60.8 °F - 60.8 °F 100% 29.95 in 6.2 mi ENE 6.9 mph - N/A   Partly Cloudy
3:30 AM 62.6 °F - 60.8 °F 94% 29.95 in 6.2 mi NE 8.1 mph - N/A   Partly Cloudy
4:00 AM 60.8 °F - 59.0 °F 94% 29.95 in - ENE 4.6 mph - N/A   Clear
4:30 AM 60.8 °F - 59.0 °F 94% 29.95 in - NE 6.9 mph - N/A   Clear
5:00 AM 60.8 °F - 59.0 °F 94% 29.95 in - North 4.6 mph - N/A   Clear
5:30 AM 59.0 °F - 59.0 °F 100% 29.95 in - North 3.5 mph - N/A   Clear
6:00 AM 59.0 °F - 57.2 °F 94% 29.95 in - North 4.6 mph - N/A   Clear
6:30 AM 59.0 °F - 57.2 °F 94% 29.98 in - Calm Calm - N/A   Clear
7:00 AM 60.8 °F - 59.0 °F 94% 29.98 in - Variable 2.3 mph - N/A   Clear
7:30 AM 62.6 °F - 60.8 °F 94% 29.98 in - Variable 1.2 mph - N/A   Clear
8:00 AM 64.4 °F - 59.0 °F 83% 29.98 in - Variable 1.2 mph - N/A   Clear
8:30 AM 66.2 °F - 60.8 °F 83% 29.98 in - WSW 3.5 mph - N/A   Clear
9:00 AM 68.0 °F - 59.0 °F 73% 29.98 in - West 3.5 mph - N/A   Clear
9:30 AM 69.8 °F - 60.8 °F 73% 29.98 in - SW 5.8 mph - N/A   Clear
10:00 AM 73.4 °F - 60.8 °F 65% 29.98 in - SSW 6.9 mph - N/A   Clear
10:30 AM 73.4 °F - 60.8 °F 65% 29.98 in - SSW 5.8 mph - N/A   Clear
11:00 AM 75.2 °F - 62.6 °F 65% 29.95 in - Variable 5.8 mph - N/A   Clear
11:30 AM 77.0 °F - 62.6 °F 61% 29.95 in - SW 6.9 mph - N/A   Clear
12:00 PM 77.0 °F - 64.4 °F 65% 29.95 in 6.2 mi WSW 6.9 mph - N/A   Partly Cloudy
12:30 PM 78.8 °F - 64.4 °F 61% 29.95 in 6.2 mi WSW 6.9 mph - N/A   Partly Cloudy
1:00 PM 78.8 °F - 64.4 °F 61% 29.95 in 6.2 mi WSW 10.4 mph - N/A   Partly Cloudy
1:30 PM 78.8 °F - 64.4 °F 61% 29.95 in 6.2 mi SW 9.2 mph - N/A   Partly Cloudy
2:00 PM 78.8 °F - 64.4 °F 61% 29.92 in 6.2 mi WSW 9.2 mph - N/A   Scattered Clouds
2:30 PM 80.6 °F 82.3 °F 64.4 °F 58% 29.92 in 6.2 mi SW 10.4 mph - N/A   Scattered Clouds
3:00 PM 82.4 °F 82.9 °F 60.8 °F 48% 29.89 in - SW 9.2 mph - N/A   Clear
3:30 PM 82.4 °F 82.5 °F 59.0 °F 45% 29.89 in - WSW 12.7 mph - N/A   Clear
4:00 PM 82.4 °F 82.0 °F 57.2 °F 42% 29.89 in - SW 13.8 mph - N/A   Clear
4:30 PM 84.2 °F 83.5 °F 57.2 °F 40% 29.89 in - SW 15.0 mph - N/A   Clear
5:00 PM 82.4 °F 81.7 °F 55.4 °F 39% 29.89 in - SW 12.7 mph - N/A   Clear
5:30 PM 82.4 °F - 51.8 °F 35% 29.86 in - SW 12.7 mph - N/A   Clear
6:00 PM 82.4 °F 81.4 °F 53.6 °F 37% 29.86 in - SW 11.5 mph - N/A   Clear
6:30 PM 82.4 °F 81.7 °F 55.4 °F 39% 29.86 in - WSW 10.4 mph - N/A   Clear
7:00 PM 80.6 °F - 51.8 °F 37% 29.86 in - SW 10.4 mph - N/A   Clear
7:30 PM 80.6 °F 80.5 °F 55.4 °F 42% 29.86 in - SW 5.8 mph - N/A   Clear
8:00 PM 77.0 °F - 55.4 °F 47% 29.86 in - SW 4.6 mph - N/A   Clear
8:30 PM 73.4 °F - 57.2 °F 57% 29.86 in - SW 5.8 mph - N/A   Clear
9:00 PM 69.8 °F - 51.8 °F 53% 29.89 in - SW 5.8 mph - N/A   Clear
9:30 PM 68.0 °F - 50.0 °F 52% 29.89 in - SW 6.9 mph - N/A   Clear
10:00 PM 66.2 °F - 55.4 °F 68% 29.89 in - WSW 5.8 mph - N/A   Clear
10:30 PM 64.4 °F - 51.8 °F 64% 29.89 in - SW 5.8 mph - N/A   Clear
11:00 PM 62.6 °F - 50.0 °F 63% 29.89 in - WSW 3.5 mph - N/A   Clear
11:30 PM 64.4 °F - 48.2 °F 56% 29.89 in - WSW 4.6 mph - N/A   Clear